SAS2546 EGPH-ESSA

Flight info

Callsign SAS2546
Flight time 1h 32m
Altitude 39000
Route GRICE P600 ASNUD DCT ADN DCT KLONN DCT VATEX DCT ELTOK
Aircraft A20N/M-SDE2E3FGHIRWXY/LB1

Departure

Time 2026-04-23 19:42
Airport Edinburgh Airport (EGPH)

Arrival

Time 2026-04-23 21:14
Airport Stockholm-Arlanda Airport (ESSA)
Time Latitude Longitude Altitude Speed Heading
2026-04-23 19:10 55.94915 -3.36422 106 ft 0 kts 148°
2026-04-23 19:28 55.94927 -3.36436 106 ft 2 kts 149°
2026-04-23 19:28 55.94955 -3.36466 106 ft 2 kts 151°
2026-04-23 19:29 55.94970 -3.36479 103 ft 2 kts 161°
2026-04-23 19:29 55.94989 -3.36470 104 ft 0 kts 239°
2026-04-23 19:32 55.94989 -3.36472 104 ft 2 kts 239°
2026-04-23 19:33 55.94969 -3.36532 104 ft 10 kts 239°
2026-04-23 19:33 55.94924 -3.36663 106 ft 13 kts 239°
2026-04-23 19:33 55.94917 -3.36913 104 ft 12 kts 235°
2026-04-23 19:34 55.94867 -3.37055 105 ft 15 kts 239°
2026-04-23 19:34 55.94808 -3.37235 104 ft 19 kts 239°
2026-04-23 19:34 55.94669 -3.37650 112 ft 21 kts 238°
2026-04-23 19:35 55.94598 -3.37853 110 ft 13 kts 238°
2026-04-23 19:35 55.94545 -3.38010 112 ft 17 kts 239°
2026-04-23 19:35 55.94475 -3.38221 109 ft 22 kts 239°
2026-04-23 19:35 55.94395 -3.38460 113 ft 23 kts 238°
2026-04-23 19:36 55.94308 -3.38701 116 ft 21 kts 239°
2026-04-23 19:36 55.94283 -3.38842 120 ft 10 kts 287°
2026-04-23 19:36 55.94314 -3.38895 117 ft 0 kts 329°
2026-04-23 19:40 55.94323 -3.38905 118 ft 7 kts 329°
2026-04-23 19:41 55.94417 -3.38959 114 ft 15 kts 21°
2026-04-23 19:41 55.94460 -3.38836 116 ft 13 kts 59°
2026-04-23 19:41 55.94527 -3.38641 113 ft 35 kts 59°
2026-04-23 19:41 55.94774 -3.37916 116 ft 101 kts 59°
2026-04-23 19:42 55.95226 -3.36582 218 ft 140 kts 58°
2026-04-23 19:42 55.95804 -3.35201 761 ft 138 kts 47°
2026-04-23 19:42 55.96521 -3.34093 1288 ft 136 kts 35°
2026-04-23 19:42 55.97336 -3.33160 1658 ft 146 kts 40°
2026-04-23 19:43 55.98132 -3.31858 1944 ft 165 kts 47°
2026-04-23 19:43 55.98985 -3.30310 2309 ft 186 kts 46°
2026-04-23 19:43 55.99980 -3.28644 2678 ft 208 kts 34°
2026-04-23 19:43 56.01444 -3.28038 3084 ft 233 kts 353°
2026-04-23 19:44 56.03070 -3.28724 3806 ft 254 kts 342°
2026-04-23 19:44 56.04770 -3.29825 4712 ft 264 kts 333°
2026-04-23 19:44 56.06180 -3.31913 5766 ft 267 kts 304°
2026-04-23 19:44 56.06899 -3.34957 6830 ft 269 kts 278°
2026-04-23 19:45 56.07145 -3.38299 7858 ft 273 kts 277°
2026-04-23 19:45 56.07469 -3.41658 8911 ft 277 kts 280°
2026-04-23 19:45 56.07886 -3.45045 9978 ft 280 kts 282°
2026-04-23 19:45 56.08360 -3.48469 10896 ft 289 kts 282°
2026-04-23 19:46 56.08885 -3.52096 11337 ft 313 kts 283°
2026-04-23 19:46 56.09448 -3.55947 11772 ft 333 kts 283°
2026-04-23 19:46 56.10030 -3.60018 12578 ft 340 kts 283°
2026-04-23 19:46 56.10628 -3.64136 13510 ft 344 kts 284°
2026-04-23 19:47 56.11184 -3.66822 13705 ft 349 kts 296°
2026-04-23 19:47 56.13298 -3.71196 13869 ft 354 kts 324°
2026-04-23 19:47 56.15535 -3.73036 13984 ft 357 kts 345°
2026-04-23 19:47 56.18013 -3.73341 14109 ft 360 kts
2026-04-23 19:48 56.20407 -3.72057 14229 ft 363 kts 27°
2026-04-23 19:48 56.22419 -3.69324 14331 ft 365 kts 47°
2026-04-23 19:48 56.23912 -3.65720 14429 ft 366 kts 53°
2026-04-23 19:48 56.25553 -3.62182 14915 ft 370 kts 46°
2026-04-23 19:49 56.27408 -3.59018 15939 ft 367 kts 41°
2026-04-23 19:49 56.29397 -3.56097 16704 ft 372 kts 38°
2026-04-23 19:49 56.31484 -3.53298 17485 ft 376 kts 36°
2026-04-23 19:49 56.33603 -3.50564 18236 ft 380 kts 36°
2026-04-23 19:50 56.35773 -3.47790 18982 ft 383 kts 36°
2026-04-23 19:50 56.37956 -3.44992 19669 ft 387 kts 36°
2026-04-23 19:50 56.40117 -3.42210 20469 ft 385 kts 36°
2026-04-23 19:50 56.42305 -3.39377 21138 ft 389 kts 36°
2026-04-23 19:51 56.44518 -3.36505 21775 ft 394 kts 36°
2026-04-23 19:51 56.46773 -3.33651 22395 ft 397 kts 34°
2026-04-23 19:51 56.49070 -3.30828 23055 ft 401 kts 34°
2026-04-23 19:51 56.51392 -3.27985 23674 ft 405 kts 34°
2026-04-23 19:52 56.52937 -3.26088 24086 ft 407 kts 34°
2026-04-23 19:52 56.56074 -3.22213 24626 ft 416 kts 34°
2026-04-23 19:52 56.58468 -3.19242 25173 ft 418 kts 34°
2026-04-23 19:52 56.60875 -3.16247 25725 ft 421 kts 34°
2026-04-23 19:53 56.63298 -3.13226 26220 ft 424 kts 34°
2026-04-23 19:53 56.65737 -3.10180 26722 ft 427 kts 34°
2026-04-23 19:53 56.68138 -3.07175 27194 ft 430 kts 34°
2026-04-23 19:53 56.70604 -3.04085 27660 ft 433 kts 34°
2026-04-23 19:54 56.73090 -3.00963 28122 ft 436 kts 34°
2026-04-23 19:54 56.75598 -2.97809 28566 ft 439 kts 33°
2026-04-23 19:54 56.78082 -2.94682 28992 ft 441 kts 33°
2026-04-23 19:54 56.80610 -2.91494 29422 ft 444 kts 33°
2026-04-23 19:55 56.83161 -2.88269 29815 ft 447 kts 33°
2026-04-23 19:55 56.85725 -2.85025 30203 ft 451 kts 33°
2026-04-23 19:55 56.88312 -2.81745 30605 ft 453 kts 33°
2026-04-23 19:55 56.90901 -2.78457 30962 ft 455 kts 33°
2026-04-23 19:56 56.93505 -2.75144 31331 ft 457 kts 33°
2026-04-23 19:56 56.96116 -2.71817 31741 ft 457 kts 33°
2026-04-23 19:56 56.98690 -2.68530 32219 ft 456 kts 33°
2026-04-23 19:56 57.01287 -2.65208 32727 ft 454 kts 33°
2026-04-23 19:57 57.03872 -2.61895 33216 ft 452 kts 33°
2026-04-23 19:57 57.06447 -2.58591 33713 ft 450 kts 33°
2026-04-23 19:57 57.08147 -2.56405 34030 ft 449 kts 33°
2026-04-23 19:57 57.11572 -2.51995 34518 ft 450 kts 33°
2026-04-23 19:58 57.14135 -2.48688 34860 ft 450 kts 33°
2026-04-23 19:58 57.16696 -2.45380 35196 ft 449 kts 33°
2026-04-23 19:58 57.19254 -2.42068 35522 ft 449 kts 33°
2026-04-23 19:58 57.21777 -2.38797 35841 ft 449 kts 33°
2026-04-23 19:59 57.24330 -2.35482 36158 ft 448 kts 33°
2026-04-23 19:59 57.26874 -2.32171 36508 ft 447 kts 33°
2026-04-23 19:59 57.29355 -2.28696 36764 ft 449 kts 41°
2026-04-23 19:59 57.31435 -2.24371 37012 ft 452 kts 54°
2026-04-23 20:00 57.32982 -2.19298 37254 ft 455 kts 64°
2026-04-23 20:00 57.34247 -2.13928 37507 ft 455 kts 66°
2026-04-23 20:00 57.35466 -2.08514 37788 ft 455 kts 66°
2026-04-23 20:00 57.36693 -2.03110 38063 ft 455 kts 66°
2026-04-23 20:01 57.37941 -1.97707 38241 ft 457 kts 65°
2026-04-23 20:01 57.39184 -1.92387 38488 ft 457 kts 65°
2026-04-23 20:01 57.40449 -1.86990 38762 ft 456 kts 65°
2026-04-23 20:01 57.41714 -1.81590 39002 ft 456 kts 65°
2026-04-23 20:02 57.42976 -1.76193 39219 ft 456 kts 66°
2026-04-23 20:02 57.44237 -1.70785 39360 ft 457 kts 66°
2026-04-23 20:02 57.45496 -1.65371 39472 ft 457 kts 66°
2026-04-23 20:03 57.48000 -1.54555 39487 ft 455 kts 66°
2026-04-23 20:03 57.50473 -1.43822 39489 ft 455 kts 66°
2026-04-23 20:04 57.52956 -1.32987 39489 ft 455 kts 66°
2026-04-23 20:04 57.55430 -1.22140 39489 ft 455 kts 66°
2026-04-23 20:05 57.57478 -1.13120 39499 ft 455 kts 66°
2026-04-23 20:05 57.60330 -1.00487 39495 ft 455 kts 66°
2026-04-23 20:06 57.62775 -0.89597 39499 ft 455 kts 66°
2026-04-23 20:06 57.65210 -0.78697 39506 ft 455 kts 66°
2026-04-23 20:07 57.67638 -0.67769 39473 ft 456 kts 66°
2026-04-23 20:07 57.70043 -0.56891 39475 ft 456 kts 66°
2026-04-23 20:08 57.72453 -0.45929 39479 ft 456 kts 67°
2026-04-23 20:08 57.74859 -0.34930 39482 ft 457 kts 67°
2026-04-23 20:09 57.77258 -0.23905 39485 ft 457 kts 67°
2026-04-23 20:09 57.79632 -0.12934 39489 ft 458 kts 67°
2026-04-23 20:10 57.81631 -0.03656 39492 ft 458 kts 67°
2026-04-23 20:10 57.84394 0.09241 39497 ft 459 kts 67°
2026-04-23 20:11 57.86764 0.20372 39499 ft 459 kts 68°
2026-04-23 20:11 57.89109 0.31441 39501 ft 459 kts 68°
2026-04-23 20:12 57.91460 0.42601 39497 ft 459 kts 68°
2026-04-23 20:12 57.93801 0.53780 39484 ft 459 kts 68°
2026-04-23 20:13 57.96135 0.64979 39480 ft 459 kts 68°
2026-04-23 20:13 57.98442 0.76109 39478 ft 459 kts 68°
2026-04-23 20:14 58.00757 0.87346 39479 ft 460 kts 68°
2026-04-23 20:14 58.03059 0.98581 39479 ft 460 kts 68°
2026-04-23 20:15 58.05355 1.09845 39475 ft 460 kts 68°
2026-04-23 20:15 58.07624 1.21043 39476 ft 460 kts 68°
2026-04-23 20:16 58.09903 1.32347 39454 ft 461 kts 69°
2026-04-23 20:16 58.12174 1.43683 39455 ft 461 kts 69°
2026-04-23 20:17 58.14436 1.55038 39449 ft 462 kts 69°
2026-04-23 20:17 58.16677 1.66354 39452 ft 462 kts 69°
2026-04-23 20:18 58.18926 1.77773 39467 ft 463 kts 69°
2026-04-23 20:18 58.21168 1.89226 39451 ft 464 kts 69°
2026-04-23 20:19 58.23405 2.00716 39445 ft 464 kts 69°
2026-04-23 20:19 58.25620 2.12158 39445 ft 465 kts 69°
2026-04-23 20:20 58.27841 2.23704 39446 ft 466 kts 69°
2026-04-23 20:20 58.30051 2.35262 39449 ft 466 kts 69°
2026-04-23 20:21 58.31885 2.44903 39451 ft 466 kts 69°
2026-04-23 20:21 58.34082 2.56515 39430 ft 467 kts 70°
2026-04-23 20:22 58.36630 2.70056 39428 ft 468 kts 70°
2026-04-23 20:22 58.38802 2.81743 39431 ft 468 kts 72°
2026-04-23 20:23 58.40205 2.91711 39433 ft 468 kts 75°
2026-04-23 20:23 58.41895 3.03719 39437 ft 469 kts 75°
2026-04-23 20:24 58.43866 3.17687 39438 ft 470 kts 75°
2026-04-23 20:24 58.45272 3.27792 39426 ft 470 kts 75°
2026-04-23 20:25 58.46925 3.39798 39428 ft 471 kts 75°
2026-04-23 20:25 58.48573 3.51906 39424 ft 471 kts 75°
2026-04-23 20:26 58.50208 3.64031 39422 ft 471 kts 75°
2026-04-23 20:26 58.51830 3.76160 39412 ft 471 kts 76°
2026-04-23 20:27 58.53433 3.88239 39403 ft 472 kts 76°
2026-04-23 20:27 58.55036 4.00419 39392 ft 472 kts 76°
2026-04-23 20:28 58.56644 4.12609 39394 ft 472 kts 75°
2026-04-23 20:28 58.58236 4.24815 39393 ft 472 kts 76°
2026-04-23 20:29 58.59795 4.36958 39387 ft 472 kts 76°
2026-04-23 20:29 58.61352 4.49204 39382 ft 473 kts 76°
2026-04-23 20:30 58.62898 4.61470 39372 ft 473 kts 76°
2026-04-23 20:30 58.65197 4.79890 39367 ft 473 kts 76°
2026-04-23 20:31 58.67812 5.01135 39368 ft 474 kts 77°
2026-04-23 20:31 58.70799 5.25788 39358 ft 474 kts 77°
2026-04-23 20:32 58.73745 5.50524 39348 ft 474 kts 77°
2026-04-23 20:32 58.76643 5.75305 39353 ft 474 kts 77°
2026-04-23 20:33 58.79476 5.99960 39340 ft 474 kts 78°
2026-04-23 20:33 58.81037 6.13747 39334 ft 474 kts 78°
2026-04-23 20:34 58.83346 6.34388 39304 ft 473 kts 78°
2026-04-23 20:34 58.86074 6.59208 39290 ft 473 kts 78°
2026-04-23 20:35 58.88754 6.84065 39299 ft 472 kts 78°
2026-04-23 20:35 58.91364 7.08761 39254 ft 472 kts 78°
2026-04-23 20:36 58.93951 7.33709 39235 ft 473 kts 78°
2026-04-23 20:36 58.96496 7.58753 39236 ft 474 kts 79°
2026-04-23 20:37 58.98998 7.83919 39210 ft 477 kts 78°
2026-04-23 20:37 59.01453 8.09103 39215 ft 479 kts 79°
2026-04-23 20:38 59.03881 8.34565 39196 ft 479 kts 78°
2026-04-23 20:38 59.06255 8.60016 39183 ft 479 kts 79°
2026-04-23 20:39 59.08579 8.85492 39173 ft 479 kts 79°
2026-04-23 20:39 59.10840 9.10875 39169 ft 479 kts 78°
2026-04-23 20:40 59.13069 9.36474 39159 ft 480 kts 79°
2026-04-23 20:40 59.15246 9.62094 39147 ft 479 kts 79°
2026-04-23 20:41 59.17371 9.87737 39124 ft 479 kts 79°
2026-04-23 20:41 59.19442 10.13348 39106 ft 478 kts 79°
2026-04-23 20:42 59.21446 10.38814 39273 ft 476 kts 78°
2026-04-23 20:42 59.23406 10.64355 39425 ft 475 kts 79°
2026-04-23 20:43 59.25313 10.89887 39427 ft 475 kts 79°
2026-04-23 20:43 59.27162 11.15373 39331 ft 471 kts 78°
2026-04-23 20:44 59.28068 11.28093 39124 ft 472 kts 79°
2026-04-23 20:44 59.28949 11.40639 39125 ft 472 kts 79°
2026-04-23 20:44 59.30713 11.66103 39124 ft 472 kts 79°
2026-04-23 20:45 59.32691 11.91470 39118 ft 469 kts 72°
2026-04-23 20:45 59.35779 12.16176 39111 ft 465 kts 73°
2026-04-23 20:46 59.38656 12.40952 39108 ft 466 kts 73°
2026-04-23 20:46 59.41454 12.65613 39105 ft 466 kts 73°
2026-04-23 20:47 59.44224 12.90480 39104 ft 466 kts 74°
2026-04-23 20:47 59.46940 13.15353 39049 ft 462 kts 73°
2026-04-23 20:48 59.49595 13.40092 39054 ft 462 kts 73°
2026-04-23 20:48 59.52180 13.64667 39067 ft 462 kts 74°
2026-04-23 20:49 59.54733 13.89437 39093 ft 459 kts 73°
2026-04-23 20:49 59.57234 14.14154 39103 ft 459 kts 73°
2026-04-23 20:50 59.59686 14.38900 39094 ft 460 kts 74°
2026-04-23 20:50 59.62079 14.63567 37829 ft 463 kts 73°
2026-04-23 20:51 59.63287 14.76181 35947 ft 471 kts 73°
2026-04-23 20:51 59.64491 14.88945 34232 ft 473 kts 73°
2026-04-23 20:51 59.65684 15.01744 32434 ft 471 kts 73°
2026-04-23 20:51 59.66851 15.14410 30897 ft 462 kts 73°
2026-04-23 20:52 59.67976 15.26758 29572 ft 451 kts 73°
2026-04-23 20:52 59.69064 15.38806 28362 ft 439 kts 73°
2026-04-23 20:52 59.69601 15.44787 27745 ft 434 kts 73°
2026-04-23 20:52 59.70115 15.50535 27155 ft 429 kts 73°
2026-04-23 20:53 59.70622 15.56239 26566 ft 425 kts 73°
2026-04-23 20:53 59.71131 15.61996 25971 ft 422 kts 73°
2026-04-23 20:53 59.71631 15.67687 25363 ft 418 kts 74°
2026-04-23 20:53 59.72127 15.73349 24755 ft 416 kts 74°
2026-04-23 20:54 59.72621 15.79010 23920 ft 420 kts 74°
2026-04-23 20:54 59.73126 15.84775 22729 ft 430 kts 75°
2026-04-23 20:54 59.73633 15.90630 21853 ft 430 kts 75°
2026-04-23 20:54 59.74125 15.96431 21328 ft 422 kts 74°
2026-04-23 20:55 59.74592 16.02007 20990 ft 409 kts 74°
2026-04-23 20:55 59.75057 16.07533 20410 ft 404 kts 74°
2026-04-23 20:55 59.75517 16.12992 19824 ft 399 kts 74°
2026-04-23 20:55 59.75971 16.18395 19181 ft 397 kts 74°
2026-04-23 20:56 59.76421 16.23778 18578 ft 393 kts 74°
2026-04-23 20:56 59.76869 16.29150 17587 ft 398 kts 74°
2026-04-23 20:56 59.77319 16.34571 16785 ft 397 kts 75°
2026-04-23 20:56 59.77759 16.39944 16123 ft 392 kts 75°
2026-04-23 20:57 59.78190 16.45244 15473 ft 387 kts 75°
2026-04-23 20:57 59.78609 16.50425 14826 ft 383 kts 75°
2026-04-23 20:57 59.79027 16.55607 14190 ft 379 kts 75°
2026-04-23 20:57 59.79440 16.60742 13567 ft 374 kts 75°
2026-04-23 20:58 59.79844 16.65799 12737 ft 367 kts 75°
2026-04-23 20:58 59.80239 16.70768 12011 ft 357 kts 76°
2026-04-23 20:58 59.80613 16.75528 11521 ft 341 kts 76°
2026-04-23 20:58 59.80969 16.80069 11276 ft 326 kts 76°
2026-04-23 20:59 59.81330 16.84589 11173 ft 327 kts 76°
2026-04-23 20:59 59.81662 16.88850 11072 ft 305 kts 75°
2026-04-23 20:59 59.81972 16.92876 10975 ft 284 kts 75°
2026-04-23 20:59 59.82249 16.96593 10965 ft 261 kts 78°
2026-04-23 21:00 59.82180 17.00112 10839 ft 252 kts 96°
2026-04-23 21:00 59.81642 17.03395 10520 ft 249 kts 104°
2026-04-23 21:00 59.81052 17.06615 10118 ft 248 kts 104°
2026-04-23 21:00 59.80473 17.09836 9858 ft 247 kts 104°
2026-04-23 21:01 59.79896 17.13043 9630 ft 247 kts 104°
2026-04-23 21:01 59.79264 17.16205 9419 ft 245 kts 117°
2026-04-23 21:01 59.78105 17.18509 9302 ft 238 kts 151°
2026-04-23 21:01 59.76615 17.19773 9120 ft 231 kts 160°
2026-04-23 21:02 59.75101 17.20776 8838 ft 228 kts 162°
2026-04-23 21:02 59.73597 17.21744 8565 ft 226 kts 162°
2026-04-23 21:02 59.72114 17.22737 8300 ft 224 kts 161°
2026-04-23 21:02 59.70649 17.23757 8021 ft 222 kts 160°
2026-04-23 21:03 59.69200 17.24791 7761 ft 220 kts 160°
2026-04-23 21:03 59.67776 17.25824 7423 ft 223 kts 161°
2026-04-23 21:03 59.66321 17.26883 7152 ft 222 kts 161°
2026-04-23 21:03 59.64880 17.27930 6899 ft 220 kts 161°
2026-04-23 21:04 59.63449 17.28965 6644 ft 218 kts 161°
2026-04-23 21:04 59.62029 17.29991 6393 ft 217 kts 161°
2026-04-23 21:04 59.60614 17.31012 6117 ft 216 kts 162°
2026-04-23 21:04 59.59214 17.32012 5921 ft 210 kts 160°
2026-04-23 21:05 59.57847 17.32991 5654 ft 209 kts 160°
2026-04-23 21:05 59.56480 17.33974 5371 ft 209 kts 160°
2026-04-23 21:05 59.55115 17.34956 5107 ft 208 kts 159°
2026-04-23 21:05 59.53953 17.36510 4811 ft 205 kts 124°
2026-04-23 21:06 59.53426 17.39029 4525 ft 198 kts 94°
2026-04-23 21:06 59.53343 17.41702 4267 ft 194 kts 85°
2026-04-23 21:06 59.53359 17.44344 4026 ft 192 kts 85°
2026-04-23 21:06 59.53349 17.46972 3779 ft 192 kts 87°
2026-04-23 21:07 59.53292 17.49588 3533 ft 191 kts 89°
2026-04-23 21:07 59.53201 17.52188 3301 ft 189 kts 90°
2026-04-23 21:07 59.53094 17.54764 3067 ft 188 kts 90°
2026-04-23 21:07 59.52980 17.57329 2817 ft 188 kts 90°
2026-04-23 21:08 59.52867 17.59845 2597 ft 186 kts 90°
2026-04-23 21:08 59.52753 17.62347 2494 ft 185 kts 90°
2026-04-23 21:08 59.52640 17.64883 2480 ft 183 kts 90°
2026-04-23 21:08 59.52528 17.67252 2483 ft 165 kts 89°
2026-04-23 21:09 59.52426 17.69476 2480 ft 167 kts 89°
2026-04-23 21:09 59.52328 17.71733 2481 ft 165 kts 89°
2026-04-23 21:09 59.52228 17.73982 2479 ft 165 kts 89°
2026-04-23 21:09 59.52128 17.76210 2479 ft 163 kts 89°
2026-04-23 21:10 59.52028 17.78450 2473 ft 164 kts 89°
2026-04-23 21:10 59.51928 17.80661 2472 ft 164 kts 89°
2026-04-23 21:10 59.51824 17.82918 2501 ft 165 kts 84°
2026-04-23 21:10 59.52006 17.85046 2474 ft 153 kts 57°
2026-04-23 21:11 59.52654 17.86576 2375 ft 143 kts 31°
2026-04-23 21:11 59.53504 17.87443 2208 ft 134 kts 15°
2026-04-23 21:11 59.54394 17.87931 2035 ft 132 kts
2026-04-23 21:11 59.55296 17.88276 1860 ft 132 kts
2026-04-23 21:12 59.56200 17.88600 1676 ft 133 kts
2026-04-23 21:12 59.57110 17.88929 1490 ft 132 kts
2026-04-23 21:12 59.58003 17.89253 1305 ft 122 kts
2026-04-23 21:12 59.58786 17.89535 1149 ft 116 kts
2026-04-23 21:13 59.59580 17.89820 997 ft 117 kts
2026-04-23 21:13 59.60387 17.90101 820 ft 120 kts
2026-04-23 21:13 59.61230 17.90394 640 ft 126 kts 10°
2026-04-23 21:13 59.62092 17.90700 545 ft 125 kts 13°
2026-04-23 21:14 59.62934 17.91005 392 ft 121 kts 12°
2026-04-23 21:14 59.63730 17.91323 213 ft 113 kts 10°
2026-04-23 21:14 59.64424 17.91567 143 ft 70 kts 10°
2026-04-23 21:14 59.64756 17.91694 145 ft 42 kts 12°
2026-04-23 21:15 59.65007 17.91780 143 ft 36 kts 10°
2026-04-23 21:15 59.65231 17.91979 142 ft 35 kts 40°
2026-04-23 21:15 59.65306 17.92109 139 ft 14 kts 43°
2026-04-23 21:15 59.65317 17.92130 139 ft 0 kts 43°
2026-04-23 21:16 59.65326 17.92211 138 ft 13 kts 108°
2026-04-23 21:17 59.65289 17.92415 138 ft 13 kts 111°
2026-04-23 21:17 59.65237 17.92573 137 ft 15 kts 154°
2026-04-23 21:17 59.65174 17.92616 137 ft 4 kts 160°
2026-04-23 21:17 59.65168 17.92620 137 ft 0 kts 160°